Regional Weather Roundup
Issued by NWS

Home | Current Version | Previous Version | Graphics & Text | Print | Product List | Glossary On
Versions: 1 2 3 4 5 6 7 8 9 10 11 12 13 14 15 16 17 18 19 20 21 22 23 24 25 26 27 28 29 30 31 32 33 34 35 36 37 38 39 40 41 42 43 44 45 46 47 48 49 50
000
ASUS43 KOAX 280510
RWRNE

WEATHER ROUNDUP FOR NEBRASKA
NATIONAL WEATHER SERVICE OMAHA NE
1200 AM CDT SUN AUG 28 2016

NOTES: SATELLITE DATA IS BEING USED TO AUGMENT CLOUD COVER ABOVE
       12000 FEET.
       "FAIR" INDICATES FEW OR NO CLOUDS BELOW 12,000 FEET WITH NO
       SIGNIFICANT WEATHER AND/OR OBSTRUCTIONS TO VISIBILITY.

  * THESE STATIONS DO NOT REPORT WEATHER SUCH AS RAIN...SNOW OR FOG.

NEZ001>004-019>022-054>056-280600-
NEBRASKA PANHANDLE

CITY           SKY/WX    TMP DP  RH WIND       PRES   REMARKS
SCOTTSBLUFF    CLEAR     62  55  77 E9        30.04R
ALLIANCE       CLEAR     63  56  78 S12       30.03R
CHADRON        CLEAR     73  53  49 S23       29.95R
KIMBALL        CLEAR     61  52  73 S10       30.11S
SIDNEY         CLEAR     61  55  81 S8        30.10R
$$

NEZ057>060-069>072-079>082-280600-
SOUTHWEST NEBRASKA

CITY           SKY/WX    TMP DP  RH WIND       PRES   REMARKS
NORTH PLATTE   CLEAR     66  63  90 E7        30.05S
IMPERIAL       CLEAR     67  63  87 SE9       30.06R
LEXINGTON      CLOUDY    70  64  83 SE7       30.06S
MCCOOK         CLOUDY    68  64  87 E3        30.04R
OGALLALA       CLEAR     72  62  71 SE10G16   30.05S
$$

NEZ005>010-023>029-035>040-094-280600-
NORTH CENTRAL NEBRASKA

CITY           SKY/WX    TMP DP  RH WIND       PRES   REMARKS
VALENTINE      CLEAR     72  61  68 S15       29.99R
AINSWORTH      CLEAR     69  64  84 S13       30.02S
BROKEN BOW     CLEAR     66  64  93 SE7       30.06R
O`NEILL        CLEAR     69  63  80 S7        30.04S
ORD            CLEAR     67  61  81 SE6       30.04S
THEDFORD       CLEAR     71  64  79 S12       30.05R
$$

NEZ041-046>049-061>064-073>077-083>087-280600-
SOUTH CENTRAL NEBRASKA

CITY           SKY/WX    TMP DP  RH WIND       PRES   REMARKS
GRAND ISLAND   CLOUDY    71  66  84 S9        30.07R
AURORA         CLOUDY    66  66  99 SE5       30.07S
HASTINGS       CLOUDY    72  65  78 SE8       30.07S
HEBRON         CLOUDY    68  66  94 CALM      30.05F
HOLDREGE       CLOUDY    69  64  85 SE7       30.06S
KEARNEY *      CLOUDY    68  63  83 SE6       30.05S
YORK           PTCLDY    68  66  94 S6        30.07S
$$

NEZ011>018-030>034-042>045-280600-
NORTHEAST NEBRASKA

CITY           SKY/WX    TMP DP  RH WIND       PRES   REMARKS
NORFOLK        CLEAR     68  63  84 SE9       30.05S
ALBION         PTCLDY    67  63  86 SE6       30.06S
BLAIR          CLEAR     71  67  88 SE5       30.07R
FREMONT        CLOUDY    70  68  93 SE5       30.07R
TEKAMAH        PTCLDY    65  63  93 S5        30.05S
WAYNE          CLEAR     66  65  96 S6        30.06S
$$

NEZ050>053-065>068-078-088>093-280600-
SOUTHEAST NEBRASKA

CITY           SKY/WX    TMP DP  RH WIND       PRES   REMARKS
LINCOLN        CLOUDY    69  64  84 CALM      30.07R
OMAHA EPPLEY   CLEAR     72  66  81 SE7       30.06R
BEATRICE       CLOUDY    72  67  85 SE3       30.06S
FALLS CITY     CLEAR     70  68  93 CALM      30.05R
NEBRASKA CITY  CLOUDY    69  69 100 S5        30.08R
PLATTSMOUTH    CLOUDY    70  68  94 SE6       30.07R
$$

NEZ044-045-051>053-067-280600-
OMAHA AREA

CITY           SKY/WX    TMP DP  RH WIND       PRES   REMARKS
OMAHA EPPLEY   CLEAR     72  66  81 SE7       30.06R
BLAIR          CLEAR     71  67  88 SE5       30.07R
FREMONT        CLOUDY    70  68  93 SE5       30.07R
MILLARD        CLEAR     71  68  90 CALM      30.06S
OFFUTT AFB     PTCLDY    65  65 100 E2        30.06R
PLATTSMOUTH    CLOUDY    70  68  94 SE6       30.07R
WAHOO          FAIR      66  64  95 SE3       30.07R
$$




USA.gov is the U.S. government's official web portal to all federal, state and local government web resources and services.